SCP
0 0 0 0 0 0 0 0 0 0 0 0 0 0 0 0 0 0 0 0 0 0 0 0 0 0 0 0 0 0 0 0 0 0 0 0 0 0 0 0 0 0 0 0 0 0 0 0 0 0 0 0 0 0
0 0 0 0 0 0 0 0 0 0 0 0 0 0 0 0 0 0 0 0 0 0 0 0 0 0 0 0 0 0 0 0 0 0 0 0 0 0 0 0 0 0 0 0 0 0 0 0 0 0 0 0 0 0
0 0 0 0 0 0 0 0 0 0 0 0 0 0 0 0 0 0 0 0 0 0 0 0 0 0 0 0 0 0 0 0 0 0 0 0 0 0 0 0 0 0 0 0 0 0 0 0 0 0 0 0 0 0
0 0 0 0 0 0 0 0 0 0 0 0 0 0 0 0 0 0 0 0 0 0 0 0 0 0 0 0 0 0 0 0 0 0 0 0 0 0 0 0 0 0 0 0 0 0 0 0 0 0 0 0 0 0
0 0 0 0 0 0 0 0 0 0 0 0 0 0 0 0 0 0 0 0 0 0 0 0 0 0 0 0 0 0 0 0 0 0 0 0 0 0 0 0 0 0 0 0 0 0 0 0 0 0 0 0 0 0
0 0 0 0 0 0 0 0 0 0 0 0 0 0 0 0 0 0 0 0 0 0 0 0 0 0 0 0 0 0 0 0 0 0 0 0 0 0 0 0 0 0 0 0 0 0 0 0 0 0 0 0 0 0
0 0 0 0 0 0 0 0 0 0 0 0 0 0 0 0 0 0 0 0 -0 0 0 0 0 0 0 0 0 0 0 0 0 0 0 0 0 0 0 0 0 0 0 0 0 0 0 0 0 0 0 0 0 -0
0 0 0 0 0 0 0 0 0 0 0 0 0 0 0 0 0 0 0 0 0 0 0 0 0 0 0 0 0 0 0 0 0 0 0 0 0 0 0 0 0 -0 0 0 0 0 0 0 0 0 0 -0 -0 -0
0 0 0 0 0 0 0 0 0 0 0 0 0 0 0 0 0 0 0 0 0 0 0 0 0 0 0 0 0 0 0 0 0 0 0 0 0 0 0 0 0 0 0 0 0 0 0 0 0 0 -0 -0 -0 -0
0 0 0 0 0 0 0 0 0 0 0 0 0 0 0 0 0 0 0 0 0 0 0 0 0 0 0 0 0 0 0 0 0 0 0 0 0 0 -0 0 0 0 0 0 0 0 0 0 0 -0 -0 -0 -0 -0
0 0 0 0 0 0 0 0 0 0 0 0 0 0 0 0 0 0 0 0 0 0 0 0 0 0 0 0 0 0 0 0 0 0 0 0 0 0 0 0 0 0 0 0 0 0 0 -0 -0 -0 -0 -0 -0 -0
-0 -0 -0 -0 0 0 0 0 0 0 0 0 0 0 0 0 0 0 0 0 0 -0 0 0 0 0 0 0 0 0 0 0 0 0 0 0 0 0 0 0 0 0 0 0 0 -0 -0 -0 -0 -0 -0 -0 -0 -0
-0 -0 -0 0 0 0 0 0 0 0 0 0 0 0 0 0 0 0 0 0 0 0 0 -0 0 0 0 0 0 0 0 0 0 0 0 0 0 -0 0 0 0 0 0 0 -0 0 0 0 0 0 0 -0 -0 -0
-0 -0 -0 0 0 0 -0 0 0 0 0 0 0 0 0 0 0 0 0 0 0 0 0 0 -0 -0 0 0 0 0 0 -0 0 0 0 0 -0 0 0 0 0 0 0 0 -0 -0 0 -0 0 0 -0 -0 -0 -0
-0 -0 -0 0 0 -0 -0 0 0 0 0 0 0 0 0 0 0 0 0 0 0 0 0 0 0 0 0 0 0 0 0 0 0 0 -0 -0 0 0 0 0 0 0 -0 0 -0 -0 -0 0 -0 0 -0 -0 0 -0
-0 -0 -0 -0 -0 0 0 0 0 0 0 0 0 0 0 0 0 -0 0 0 -0 -0 0 0 0 0 0 0 0 0 0 0 0 -0 0 0 0 0 0 0 0 -0 -0 -0 0 -0 0 -0 0 -0 -0 -0 -0 -0
-0 -0 -0 -0 0 0 0 0 0 0 0 0 0 0 0 0 0 0 -0 0 0 0 0 0 0 -0 0 -0 -0 -0 0 0 0 0 0 0 0 0 0 0 0 -0 -0 -0 -0 0 0 0 0 0 0 -0 -0 -0
0 -0 -0 0 0 0 0 0 0 0 0 0 0 0 0 0 0 0 0 -0 0 0 0 0 0 0 -0 -0 -0 -0 -0 -0 0 -0 0 0 -0 -0 -0 -0 -0 -0 -0 -0 0 -0 0 0 0 -0 -0 -0 -0 -0
-0 -0 -0 0 0 0 0 0 0 0 0 0 0 0 0 0 0 0 0 0 0 0 0 0 0 -0 -0 -0 -0 -0 -0 0 0 -0 0 0 -0 -0 -0 -0 0 -0 -0 -0 -0 -0 0 0 -0 -0 -0 -0 -0 -0
-0 -0 0 0 0 0 0 0 0 0 0 0 0 0 0 0 0 0 0 0 0 0 0 0 -0 -0 -0 -0 -0 0 0 -0 -0 -0 -0 -0 -0 -0 0 -0 -0 -0 -0 -0 -0 -0 0 -0 -0 -0 -0 -0 -0 -0
0 0 0 0 0 0 0 0 0 0 0 0 0 0 0 0 0 0 0 0 0 0 0 0 0 -0 -0 -0 0 0 -0 -0 -0 -0 0 -0 -0 -0 -0 0 0 -0 0 -0 -0 -0 -0 -0 -0 0 -0 -0 -0 -0
0 0 0 0 0 0 0 0 0 0 0 0 0 0 0 0 0 0 0 0 0 0 0 0 0 0 -0 -0 0 0 0 -0 -0 -0 0 0 0 0 0 0 0 -0 -0 0 -0 -0 -0 -0 -0 -0 0 -0 -0 -0
0 0 0 0 0 0 0 0 -0 0 0 0 0 0 0 0 0 0 0 0 0 0 0 0 0 -0 0 0 0 0 0 0 0 0 0 0 0 0 0 0 0 -0 -0 0 0 0 0 -0 -0 -0 -0 -0 -0 -0
0 0 0 0 -0 0 0 0 0 0 0 0 0 0 0 0 0 0 0 0 0 0 0 0 0 0 0 0 0 0 0 0 0 0 0 0 0 0 0 0 0 0 0 0 0 0 0 0 0 -0 -0 -0 -0 -0
0 0 0 0 0 0 0 0 -0 -0 -0 0 -0 0 0 0 -0 -0 -0 0 0 0 0 0 0 0 0 -0 0 0 -0 0 0 0 0 0 0 0 0 0 0 0 0 0 0 0 0 0 0 0 -0 -0 -0 -0
0 0 0 0 0 0 0 0 -0 0 0 -0 0 0 0 0 0 0 0 0 0 0 0 0 0 0 0 0 0 0 0 0 0 0 0 0 0 0 0 0 0 0 0 0 0 0 0 0 0 0 0 0 0 -0
0 0 0 0 0 0 0 0 -0 0 -0 0 0 -0 -0 -0 0 0 0 0 0 0 0 0 0 0 0 0 -0 -0 0 0 -0 0 0 0 0 0 0 0 0 -0 0 0 0 0 0 0 0 0 0 0 0 0
0 0 0 0 0 -0 -0 -0 0 -0 0 -0 -0 0 0 0 0 0 0 0 0 0 0 0 0 0 0 0 0 0 -0 -0 -0 -0 -0 -0 0 0 0 0 0 0 0 0 0 0 0 0 0 0 0 0 0 0
0 0 0 -0 -0 0 0 0 0 0 -0 0 0 0 0 0 0 0 0 -0 0 0 0 0 0 -0 -0 -0 -0 -0 -0 -0 -0 -0 -0 0 0 0 0 0 0 0 0 0 0 0 0 0 0 0 0 0 0 0
0 0 0 0 -0 -0 0 0 0 -0 0 0 0 0 0 0 0 -0 -0 -0 0 0 0 0 0 0 -0 -0 -0 -0 -0 -0 0 -0 0 0 0 0 0 0 0 0 0 0 0 0 0 0 0 0 0 0 0 0
0 0 0 0 0 -0 0 0 0 0 0 0 0 0 0 0 0 0 -0 -0 0 0 0 -0 -0 0 -0 0 -0 -0 0 0 0 0 0 0 0 0 0 0 0 0 0 0 0 0 0 0 0 0 0 0 0 0
0 0 0 0 0 0 0 0 0 0 0 0 0 0 0 0 0 0 -0 -0 -0 -0 -0 0 0 0 0 0 0 0 0 0 0 0 0 0 0 0 0 0 0 0 0 0 0 0 0 0 0 0 0 0 0 0
0 0 0 0 0 0 0 0 0 0 0 0 0 0 0 0 0 0 0 0 0 0 0 0 0 0 0 0 0 0 0 0 0 0 0 0 0 0 0 0 0 0 0 0 0 0 0 0 0 0 0 0 0 0
Wind_Speed_500mb
40 38 36 34 30 20 21 19 20 20 21 23 21 21 15 12 13 4 5 5 6 3 7 10 14 9 6 6 7 0 5 7 7 5 4 5 3 5 5 4 9 9 7 6 4 6 12 9 6 6 10 8 20 20
40 37 37 33 31 28 23 24 26 26 27 26 21 15 13 11 12 5 4 3 6 7 6 17 12 8 5 7 12 6 6 5 3 6 4 2 4 6 3 4 3 2 10 4 9 6 16 33 26 9 6 8 12 26
38 35 36 33 31 30 27 24 28 28 27 28 21 17 14 10 9 3 2 4 5 6 5 7 8 9 8 6 7 10 6 6 7 9 6 2 4 4 3 8 3 8 10 5 2 7 15 24 1 6 12 21 27 26
37 37 36 34 31 29 25 24 22 22 21 21 18 18 14 9 4 3 4 2 6 4 3 4 14 13 10 12 9 3 5 11 11 7 7 1 4 1 5 8 5 11 6 6 8 12 13 17 19 23 21 33 24 17
36 36 37 34 30 28 26 25 21 17 18 15 13 18 16 13 7 6 6 7 6 1 2 10 8 13 16 16 8 8 9 7 4 6 4 4 7 2 7 3 8 13 12 8 10 16 11 20 17 21 27 9 15 22
36 35 35 32 27 28 26 22 18 16 12 9 10 12 15 16 7 3 1 7 13 11 2 4 4 15 33 22 16 15 6 6 8 8 3 7 12 5 2 5 15 3 7 24 28 29 29 26 26 22 7 7 17 27
40 33 31 29 27 27 25 21 16 13 10 10 9 9 12 15 11 4 2 5 17 11 3 9 8 10 35 27 16 10 5 3 4 8 7 7 8 16 4 7 14 29 33 7 6 8 13 18 22 10 16 19 27 41
41 35 30 27 24 24 19 16 13 12 10 11 9 9 13 9 23 11 6 5 4 3 1 1 6 10 24 10 8 10 9 9 9 5 7 8 6 10 7 23 31 27 16 5 4 9 11 12 15 18 18 31 46 53
42 32 28 26 22 19 15 11 14 11 10 10 9 13 12 6 8 6 11 6 10 5 3 3 5 5 21 8 8 9 9 3 6 5 7 7 5 8 14 28 26 19 7 7 8 15 20 22 16 23 33 44 47 39
42 35 30 26 25 18 16 14 14 9 8 9 15 4 8 7 5 9 5 6 7 8 8 5 7 5 20 18 7 8 5 3 4 10 8 6 7 40 38 35 26 10 2 8 15 18 19 13 19 25 32 38 36 40
36 31 30 27 27 21 16 13 8 8 11 14 6 2 13 16 12 5 4 3 5 4 11 12 15 3 6 7 5 10 5 1 4 3 6 4 6 6 6 6 7 8 11 15 14 15 17 18 22 32 31 34 36 36
35 31 33 29 25 23 13 18 13 19 8 11 10 16 15 6 4 4 6 6 7 7 11 11 17 20 7 5 8 7 3 5 8 16 4 5 3 4 10 12 24 18 19 18 12 17 21 27 32 22 30 34 31 38
38 33 34 28 27 21 18 19 14 20 10 17 6 7 6 6 5 7 8 6 5 8 13 14 8 12 7 5 5 3 5 8 4 4 5 2 10 8 13 29 26 19 19 21 21 23 29 20 26 26 27 25 46 41
35 30 25 15 13 16 18 14 17 22 8 6 7 6 7 6 8 8 6 6 10 12 29 34 12 8 8 5 3 6 8 4 5 4 3 4 19 7 25 22 19 19 18 17 16 22 16 29 25 23 28 43 53 41
23 21 15 13 11 15 17 15 22 23 10 7 6 6 11 15 14 14 26 9 14 12 29 20 10 4 4 2 5 4 4 6 2 4 5 19 17 23 19 16 16 14 12 11 12 19 23 21 25 27 35 45 58 40
21 16 14 13 16 16 18 17 24 19 5 4 8 7 13 5 9 20 8 15 21 23 22 13 5 3 5 5 1 9 4 5 6 5 19 23 27 19 15 13 12 10 9 9 13 17 22 23 27 29 37 41 54 58
10 13 21 7 11 18 27 32 15 8 7 6 9 17 25 25 17 5 10 3 15 14 5 6 9 11 5 4 5 4 4 2 16 8 27 25 22 19 14 14 9 9 11 15 17 19 21 21 23 30 43 43 49 66
4 12 9 4 15 19 21 14 7 6 8 14 10 8 9 22 24 19 13 8 17 6 10 8 8 5 6 5 4 5 5 11 9 27 26 23 22 17 12 12 12 8 13 21 20 22 23 22 26 31 42 47 46 63
11 10 5 11 11 4 3 7 5 4 11 12 18 24 17 18 16 4 9 17 21 15 13 9 4 6 5 7 9 15 12 6 28 29 23 20 18 17 12 14 10 5 18 20 17 23 24 28 22 28 42 51 51 54
11 5 10 12 13 5 4 2 4 5 7 5 17 19 15 11 6 5 10 21 22 11 3 3 7 8 6 4 6 15 21 23 19 33 26 20 20 24 18 13 15 24 25 23 24 20 21 25 26 20 36 49 55 51
2 6 10 5 5 7 1 3 5 7 9 11 17 18 8 9 9 15 19 33 11 7 8 14 16 10 11 8 15 5 17 26 41 41 30 26 21 17 21 22 26 24 24 19 23 22 21 28 21 26 20 40 51 51
2 10 11 11 5 5 5 9 9 7 7 11 13 7 7 4 4 8 26 8 9 16 21 20 17 11 9 16 11 2 12 24 40 35 27 21 19 34 37 30 21 24 22 15 18 18 16 21 30 17 26 24 41 49
14 10 6 8 6 6 7 8 7 4 4 9 14 4 4 2 1 6 5 5 6 12 21 23 22 25 15 12 9 18 11 24 32 38 46 39 32 28 29 27 21 20 22 20 18 17 15 17 23 28 16 26 32 42
12 7 5 6 10 5 6 6 6 4 4 4 4 6 3 4 3 2 3 3 7 12 8 8 5 14 15 11 28 32 24 40 47 43 43 38 34 30 23 22 22 19 13 18 18 17 14 16 18 23 26 23 28 33
6 8 7 9 11 8 8 6 7 5 5 7 4 5 4 4 3 4 2 6 12 6 6 22 20 21 24 34 13 23 36 39 44 49 38 28 37 33 25 16 13 9 4 7 13 18 18 16 20 20 24 29 25 27
7 11 13 11 7 8 8 4 9 8 5 5 6 5 6 4 5 2 1 16 17 2 23 28 16 27 31 10 29 48 51 44 42 35 30 37 29 23 22 17 13 12 7 7 2 3 12 16 13 13 23 21 24 27
5 8 15 14 9 9 7 3 9 5 5 6 4 6 4 6 4 3 6 18 16 19 23 21 29 36 17 34 43 47 40 33 26 35 34 31 32 19 13 13 19 23 20 19 17 8 5 7 9 10 15 18 20 24
11 8 7 9 8 12 4 2 4 1 5 14 2 2 2 4 3 6 6 12 12 12 18 33 26 29 41 30 36 38 38 36 36 37 39 39 32 26 25 24 21 17 19 21 19 16 16 19 18 15 15 14 15 14
9 9 8 7 8 2 7 6 5 4 5 6 2 3 4 3 4 14 10 14 21 32 21 17 21 51 38 40 38 33 25 19 21 26 33 38 30 24 15 14 11 5 9 5 2 9 12 4 4 7 12 8 9 11
9 10 4 4 5 4 3 3 1 2 2 2 6 9 9 12 14 17 16 19 23 15 24 40 40 36 39 32 30 29 25 22 18 12 26 32 26 21 12 7 6 6 5 5 5 7 10 3 3 5 8 9 12 18
9 9 6 5 4 4 3 7 7 7 7 8 15 14 13 11 22 26 21 18 22 26 24 24 26 24 26 27 21 19 23 26 28 26 26 23 15 8 5 4 5 8 11 13 16 17 18 16 13 12 15 19 24 25
10 9 10 5 4 15 10 2 4 4 4 4 5 8 9 7 7 12 27 29 31 32 29 30 36 38 32 28 22 18 18 23 17 14 10 7 5 5 4 6 10 13 16 18 19 19 17 14 13 13 14 16 19 21
8 10 7 9 9 8 11 10 6 6 5 4 5 7 7 6 6 8 25 23 24 29 32 31 30 28 27 28 28 29 26 22 20 18 15 11 9 10 12 13 10 12 16 18 17 14 13 13 14 16 17 19 20 21
Wind_Direction_500mb
337 339 335 334 333 318 307 305 300 293 299 305 310 306 301 309 336 271 256 359 8 305 309 55 59 89 103 88 128 296 54 358 40 83 146 261 194 275 16 327 170 165 203 215 253 225 256 243 315 193 228 249 260 302
334 335 331 332 329 321 290 284 285 297 307 302 297 286 276 275 312 261 227 296 327 272 263 285 286 217 172 178 140 93 130 85 81 99 43 8 338 347 106 268 31 245 186 196 208 258 321 327 275 250 255 298 313 309
331 333 331 327 323 322 319 287 279 291 291 287 280 274 271 266 273 288 190 327 330 341 347 82 178 147 184 215 190 126 103 124 93 75 137 221 273 122 245 247 281 327 162 207 56 242 253 247 268 333 315 306 303 311
328 328 331 329 322 319 319 313 297 292 299 299 269 246 238 241 239 258 230 61 20 10 69 97 120 137 162 148 158 39 154 121 120 76 83 44 240 171 239 243 207 223 286 221 256 276 303 212 308 306 308 310 310 311
326 331 330 330 327 322 319 311 301 297 296 301 297 241 219 219 216 258 271 255 215 243 247 295 289 199 185 182 177 154 139 158 144 93 89 231 255 311 277 307 256 205 204 180 241 223 220 263 304 307 302 326 318 327
319 323 323 326 326 327 324 314 305 307 291 282 280 246 216 204 203 260 111 43 201 196 322 346 16 169 181 180 171 158 160 169 158 148 190 244 249 243 287 253 265 177 272 277 250 268 256 282 299 304 300 331 324 333
321 311 314 318 319 324 320 311 304 296 282 261 236 240 191 192 185 192 127 90 135 154 28 329 341 142 164 150 153 150 148 79 166 166 206 258 274 188 231 244 258 295 314 5 351 258 281 288 311 46 354 345 339 336
315 312 307 311 313 322 316 314 309 289 267 272 243 209 194 187 189 204 196 148 346 198 216 224 267 145 179 140 133 180 157 193 211 210 205 231 260 210 250 246 271 286 298 259 14 344 340 14 11 17 3 347 341 337
316 313 307 306 306 311 309 312 308 288 259 258 195 157 171 201 173 204 200 223 200 202 246 214 190 199 182 121 126 148 174 192 204 219 233 190 242 224 232 255 274 273 241 273 350 357 358 3 20 359 349 343 343 345
314 301 308 301 297 288 296 299 297 268 236 194 163 168 150 168 154 150 152 186 204 206 218 244 254 236 167 165 148 139 140 227 228 226 188 192 251 255 261 265 285 152 10 2 24 3 348 47 15 359 353 347 346 342
312 302 293 305 292 263 286 285 284 210 182 183 168 155 138 153 152 170 139 189 176 250 213 229 217 197 94 120 146 194 157 278 264 229 173 250 277 273 237 103 130 85 64 24 23 55 58 28 10 355 358 352 348 337
306 301 298 291 287 269 269 269 264 196 178 205 184 140 157 182 181 222 187 171 210 237 199 188 200 192 123 119 105 178 218 198 255 151 212 264 272 125 325 109 96 74 66 66 46 35 25 5 356 15 2 352 347 345
304 296 302 282 279 261 236 251 229 202 157 176 197 153 162 169 200 216 197 206 212 210 191 179 113 137 120 123 103 156 207 234 248 234 222 286 139 200 82 102 92 82 65 57 38 19 358 24 23 13 2 6 354 0
307 303 302 272 262 232 224 223 188 183 194 209 163 178 221 182 238 208 224 190 213 303 182 161 120 135 132 110 170 197 221 327 256 228 213 232 224 286 105 92 80 67 55 55 35 19 35 19 25 21 17 6 8 7
318 318 289 243 261 247 226 210 187 191 189 202 199 217 222 243 265 293 296 185 176 165 136 106 65 82 91 194 194 246 232 238 279 200 185 217 144 120 100 86 80 67 57 56 49 32 34 55 39 29 19 18 15 15
319 337 352 285 244 210 198 160 170 169 193 233 230 263 272 287 3 67 21 148 153 136 107 84 112 114 210 216 252 220 200 223 255 211 174 155 131 112 97 85 101 83 68 61 40 57 56 51 37 32 23 23 20 24
327 356 350 58 159 150 148 165 149 177 205 237 251 254 266 276 256 156 140 137 157 151 143 132 170 204 185 219 242 195 168 308 330 171 151 144 133 131 124 135 111 114 72 65 91 67 62 52 44 32 30 29 25 26
359 320 31 95 154 135 166 169 154 191 243 247 253 275 244 260 276 228 178 130 194 182 161 192 149 185 202 225 218 220 236 251 215 139 138 132 138 133 136 147 143 127 83 110 91 76 62 53 47 41 29 28 28 26
287 332 171 132 152 145 134 174 202 249 246 259 273 285 276 297 311 95 189 181 170 168 148 144 161 207 224 228 131 137 37 106 167 157 153 158 156 152 133 123 119 120 129 110 92 81 67 49 48 36 29 29 30 26
260 282 138 179 178 217 154 187 226 274 278 286 297 298 290 290 289 221 195 178 159 141 109 202 214 214 206 255 259 213 185 184 183 163 173 180 160 168 149 135 113 134 122 107 86 79 66 55 46 33 26 28 31 29
206 150 182 159 190 227 275 223 246 252 290 289 309 327 293 288 247 187 167 168 174 195 228 238 246 261 276 237 326 307 175 175 189 185 178 185 173 160 155 114 115 105 144 102 76 77 57 48 52 34 24 28 28 32
118 168 175 203 198 235 258 232 247 293 262 272 300 283 276 284 297 153 168 166 215 222 229 237 244 258 236 227 343 266 148 184 198 198 201 184 168 125 128 132 136 103 91 111 80 79 68 47 37 45 30 27 22 28
165 204 162 188 199 218 261 221 240 256 278 318 325 258 253 233 84 156 170 218 250 269 269 269 262 227 235 240 175 177 197 170 160 151 141 139 135 128 120 113 118 119 90 94 99 88 74 51 38 39 38 32 20 22
179 182 199 207 209 223 223 221 221 236 262 262 239 267 221 134 163 183 265 216 297 317 294 238 260 163 160 180 156 176 171 150 146 145 145 142 137 128 126 129 111 111 103 87 91 80 69 51 43 43 49 30 24 19
171 211 197 225 203 237 201 201 206 201 242 209 247 247 149 134 159 201 229 335 326 308 150 158 154 119 131 144 154 158 143 152 153 142 149 154 145 144 139 128 122 119 122 173 88 82 80 64 53 48 36 32 23 23
220 205 198 210 223 219 204 220 188 212 217 221 242 129 139 155 180 197 153 344 341 95 154 142 118 142 142 92 133 150 140 144 141 132 150 174 168 167 160 141 103 79 41 26 10 74 79 75 70 55 45 46 34 26
240 252 217 224 242 273 283 131 177 204 231 228 176 178 172 192 150 151 119 36 46 84 139 153 121 134 144 131 135 140 143 150 146 122 116 139 166 153 126 102 81 76 63 51 44 42 9 12 40 42 41 56 52 37
251 281 216 210 230 241 237 239 214 257 11 342 147 83 126 25 111 171 132 53 63 136 150 143 136 123 126 128 136 141 135 131 123 117 110 109 105 95 85 78 73 68 58 53 56 71 72 62 56 44 52 23 24 47
243 253 304 211 214 77 45 4 45 78 355 333 11 83 96 87 116 145 91 77 120 111 94 174 149 134 129 130 128 125 128 138 147 134 124 119 116 106 104 101 90 58 93 138 28 13 3 4 141 77 87 62 346 356
244 237 259 1 102 82 46 22 130 331 329 93 100 105 102 110 95 102 100 117 127 110 98 121 135 149 152 155 142 139 146 160 185 165 152 146 138 143 171 192 245 276 275 283 317 327 320 324 144 222 279 312 325 323
186 153 92 63 85 130 151 104 95 119 135 98 132 142 131 126 98 89 82 122 158 166 179 178 163 166 170 156 165 165 126 129 140 150 153 151 153 178 171 222 260 276 291 305 319 331 333 328 320 310 308 315 325 336
158 152 149 140 140 159 142 148 105 88 72 73 101 131 115 98 77 100 88 104 136 150 153 164 166 154 160 161 155 141 132 140 152 154 159 172 189 187 241 289 304 301 305 323 341 350 352 352 352 352 351 349 347 349
126 151 137 127 144 187 195 193 159 119 99 102 106 112 95 97 120 125 91 109 116 130 136 133 135 133 140 150 152 147 152 155 160 169 176 186 217 242 277 299 298 306 316 328 344 2 20 28 27 24 18 12 6 1
Wind_Speed_850mb
40 38 36 34 30 20 21 19 20 20 21 23 21 21 15 12 13 4 5 5 6 3 7 10 14 9 6 6 7 0 5 7 7 5 4 5 3 5 5 4 9 9 7 6 4 6 12 9 6 6 10 8 20 20
40 37 37 33 31 28 23 24 26 26 27 26 21 15 13 11 12 5 4 3 6 7 6 17 12 8 5 7 12 6 6 5 3 6 4 2 4 6 3 4 3 2 10 4 9 6 16 33 26 9 6 8 12 26
38 35 36 33 31 30 27 24 28 28 27 28 21 17 14 10 9 3 2 4 5 6 5 7 8 9 8 6 7 10 6 6 7 9 6 2 4 4 3 8 3 8 10 5 2 7 15 24 1 6 12 21 27 26
37 37 36 34 31 29 25 24 22 22 21 21 18 18 14 9 4 3 4 2 6 4 3 4 14 13 10 12 9 3 5 11 11 7 7 1 4 1 5 8 5 11 6 6 8 12 13 17 19 23 21 33 24 17
36 36 37 34 30 28 26 25 21 17 18 15 13 18 16 13 7 6 6 7 6 1 2 10 8 13 16 16 8 8 9 7 4 6 4 4 7 2 7 3 8 13 12 8 10 16 11 20 17 21 27 9 15 22
36 35 35 32 27 28 26 22 18 16 12 9 10 12 15 16 7 3 1 7 13 11 2 4 4 15 33 22 16 15 6 6 8 8 3 7 12 5 2 5 15 3 7 24 28 29 29 26 26 22 7 7 17 27
40 33 31 29 27 27 25 21 16 13 10 10 9 9 12 15 11 4 2 5 17 11 3 9 8 10 35 27 16 10 5 3 4 8 7 7 8 16 4 7 14 29 33 7 6 8 13 18 22 10 16 19 27 41
41 35 30 27 24 24 19 16 13 12 10 11 9 9 13 9 23 11 6 5 4 3 1 1 6 10 24 10 8 10 9 9 9 5 7 8 6 10 7 23 31 27 16 5 4 9 11 12 15 18 18 31 46 53
42 32 28 26 22 19 15 11 14 11 10 10 9 13 12 6 8 6 11 6 10 5 3 3 5 5 21 8 8 9 9 3 6 5 7 7 5 8 14 28 26 19 7 7 8 15 20 22 16 23 33 44 47 39
42 35 30 26 25 18 16 14 14 9 8 9 15 4 8 7 5 9 5 6 7 8 8 5 7 5 20 18 7 8 5 3 4 10 8 6 7 40 38 35 26 10 2 8 15 18 19 13 19 25 32 38 36 40
36 31 30 27 27 21 16 13 8 8 11 14 6 2 13 16 12 5 4 3 5 4 11 12 15 3 6 7 5 10 5 1 4 3 6 4 6 6 6 6 7 8 11 15 14 15 17 18 22 32 31 34 36 36
35 31 33 29 25 23 13 18 13 19 8 11 10 16 15 6 4 4 6 6 7 7 11 11 17 20 7 5 8 7 3 5 8 16 4 5 3 4 10 12 24 18 19 18 12 17 21 27 32 22 30 34 31 38
38 33 34 28 27 21 18 19 14 20 10 17 6 7 6 6 5 7 8 6 5 8 13 14 8 12 7 5 5 3 5 8 4 4 5 2 10 8 13 29 26 19 19 21 21 23 29 20 26 26 27 25 46 41
35 30 25 15 13 16 18 14 17 22 8 6 7 6 7 6 8 8 6 6 10 12 29 34 12 8 8 5 3 6 8 4 5 4 3 4 19 7 25 22 19 19 18 17 16 22 16 29 25 23 28 43 53 41
23 21 15 13 11 15 17 15 22 23 10 7 6 6 11 15 14 14 26 9 14 12 29 20 10 4 4 2 5 4 4 6 2 4 5 19 17 23 19 16 16 14 12 11 12 19 23 21 25 27 35 45 58 40
21 16 14 13 16 16 18 17 24 19 5 4 8 7 13 5 9 20 8 15 21 23 22 13 5 3 5 5 1 9 4 5 6 5 19 23 27 19 15 13 12 10 9 9 13 17 22 23 27 29 37 41 54 58
10 13 21 7 11 18 27 32 15 8 7 6 9 17 25 25 17 5 10 3 15 14 5 6 9 11 5 4 5 4 4 2 16 8 27 25 22 19 14 14 9 9 11 15 17 19 21 21 23 30 43 43 49 66
4 12 9 4 15 19 21 14 7 6 8 14 10 8 9 22 24 19 13 8 17 6 10 8 8 5 6 5 4 5 5 11 9 27 26 23 22 17 12 12 12 8 13 21 20 22 23 22 26 31 42 47 46 63
11 10 5 11 11 4 3 7 5 4 11 12 18 24 17 18 16 4 9 17 21 15 13 9 4 6 5 7 9 15 12 6 28 29 23 20 18 17 12 14 10 5 18 20 17 23 24 28 22 28 42 51 51 54
11 5 10 12 13 5 4 2 4 5 7 5 17 19 15 11 6 5 10 21 22 11 3 3 7 8 6 4 6 15 21 23 19 33 26 20 20 24 18 13 15 24 25 23 24 20 21 25 26 20 36 49 55 51
2 6 10 5 5 7 1 3 5 7 9 11 17 18 8 9 9 15 19 33 11 7 8 14 16 10 11 8 15 5 17 26 41 41 30 26 21 17 21 22 26 24 24 19 23 22 21 28 21 26 20 40 51 51
2 10 11 11 5 5 5 9 9 7 7 11 13 7 7 4 4 8 26 8 9 16 21 20 17 11 9 16 11 2 12 24 40 35 27 21 19 34 37 30 21 24 22 15 18 18 16 21 30 17 26 24 41 49
14 10 6 8 6 6 7 8 7 4 4 9 14 4 4 2 1 6 5 5 6 12 21 23 22 25 15 12 9 18 11 24 32 38 46 39 32 28 29 27 21 20 22 20 18 17 15 17 23 28 16 26 32 42
12 7 5 6 10 5 6 6 6 4 4 4 4 6 3 4 3 2 3 3 7 12 8 8 5 14 15 11 28 32 24 40 47 43 43 38 34 30 23 22 22 19 13 18 18 17 14 16 18 23 26 23 28 33
6 8 7 9 11 8 8 6 7 5 5 7 4 5 4 4 3 4 2 6 12 6 6 22 20 21 24 34 13 23 36 39 44 49 38 28 37 33 25 16 13 9 4 7 13 18 18 16 20 20 24 29 25 27
7 11 13 11 7 8 8 4 9 8 5 5 6 5 6 4 5 2 1 16 17 2 23 28 16 27 31 10 29 48 51 44 42 35 30 37 29 23 22 17 13 12 7 7 2 3 12 16 13 13 23 21 24 27
5 8 15 14 9 9 7 3 9 5 5 6 4 6 4 6 4 3 6 18 16 19 23 21 29 36 17 34 43 47 40 33 26 35 34 31 32 19 13 13 19 23 20 19 17 8 5 7 9 10 15 18 20 24
11 8 7 9 8 12 4 2 4 1 5 14 2 2 2 4 3 6 6 12 12 12 18 33 26 29 41 30 36 38 38 36 36 37 39 39 32 26 25 24 21 17 19 21 19 16 16 19 18 15 15 14 15 14
9 9 8 7 8 2 7 6 5 4 5 6 2 3 4 3 4 14 10 14 21 32 21 17 21 51 38 40 38 33 25 19 21 26 33 38 30 24 15 14 11 5 9 5 2 9 12 4 4 7 12 8 9 11
9 10 4 4 5 4 3 3 1 2 2 2 6 9 9 12 14 17 16 19 23 15 24 40 40 36 39 32 30 29 25 22 18 12 26 32 26 21 12 7 6 6 5 5 5 7 10 3 3 5 8 9 12 18
9 9 6 5 4 4 3 7 7 7 7 8 15 14 13 11 22 26 21 18 22 26 24 24 26 24 26 27 21 19 23 26 28 26 26 23 15 8 5 4 5 8 11 13 16 17 18 16 13 12 15 19 24 25
10 9 10 5 4 15 10 2 4 4 4 4 5 8 9 7 7 12 27 29 31 32 29 30 36 38 32 28 22 18 18 23 17 14 10 7 5 5 4 6 10 13 16 18 19 19 17 14 13 13 14 16 19 21
8 10 7 9 9 8 11 10 6 6 5 4 5 7 7 6 6 8 25 23 24 29 32 31 30 28 27 28 28 29 26 22 20 18 15 11 9 10 12 13 10 12 16 18 17 14 13 13 14 16 17 19 20 21
Wind_Direction_850mb
337 339 335 334 333 318 307 305 300 293 299 305 310 306 301 309 336 271 256 359 8 305 309 55 59 89 103 88 128 296 54 358 40 83 146 261 194 275 16 327 170 165 203 215 253 225 256 243 315 193 228 249 260 302
334 335 331 332 329 321 290 284 285 297 307 302 297 286 276 275 312 261 227 296 327 272 263 285 286 217 172 178 140 93 130 85 81 99 43 8 338 347 106 268 31 245 186 196 208 258 321 327 275 250 255 298 313 309
331 333 331 327 323 322 319 287 279 291 291 287 280 274 271 266 273 288 190 327 330 341 347 82 178 147 184 215 190 126 103 124 93 75 137 221 273 122 245 247 281 327 162 207 56 242 253 247 268 333 315 306 303 311
328 328 331 329 322 319 319 313 297 292 299 299 269 246 238 241 239 258 230 61 20 10 69 97 120 137 162 148 158 39 154 121 120 76 83 44 240 171 239 243 207 223 286 221 256 276 303 212 308 306 308 310 310 311
326 331 330 330 327 322 319 311 301 297 296 301 297 241 219 219 216 258 271 255 215 243 247 295 289 199 185 182 177 154 139 158 144 93 89 231 255 311 277 307 256 205 204 180 241 223 220 263 304 307 302 326 318 327
319 323 323 326 326 327 324 314 305 307 291 282 280 246 216 204 203 260 111 43 201 196 322 346 16 169 181 180 171 158 160 169 158 148 190 244 249 243 287 253 265 177 272 277 250 268 256 282 299 304 300 331 324 333
321 311 314 318 319 324 320 311 304 296 282 261 236 240 191 192 185 192 127 90 135 154 28 329 341 142 164 150 153 150 148 79 166 166 206 258 274 188 231 244 258 295 314 5 351 258 281 288 311 46 354 345 339 336
315 312 307 311 313 322 316 314 309 289 267 272 243 209 194 187 189 204 196 148 346 198 216 224 267 145 179 140 133 180 157 193 211 210 205 231 260 210 250 246 271 286 298 259 14 344 340 14 11 17 3 347 341 337
316 313 307 306 306 311 309 312 308 288 259 258 195 157 171 201 173 204 200 223 200 202 246 214 190 199 182 121 126 148 174 192 204 219 233 190 242 224 232 255 274 273 241 273 350 357 358 3 20 359 349 343 343 345
314 301 308 301 297 288 296 299 297 268 236 194 163 168 150 168 154 150 152 186 204 206 218 244 254 236 167 165 148 139 140 227 228 226 188 192 251 255 261 265 285 152 10 2 24 3 348 47 15 359 353 347 346 342
312 302 293 305 292 263 286 285 284 210 182 183 168 155 138 153 152 170 139 189 176 250 213 229 217 197 94 120 146 194 157 278 264 229 173 250 277 273 237 103 130 85 64 24 23 55 58 28 10 355 358 352 348 337
306 301 298 291 287 269 269 269 264 196 178 205 184 140 157 182 181 222 187 171 210 237 199 188 200 192 123 119 105 178 218 198 255 151 212 264 272 125 325 109 96 74 66 66 46 35 25 5 356 15 2 352 347 345
304 296 302 282 279 261 236 251 229 202 157 176 197 153 162 169 200 216 197 206 212 210 191 179 113 137 120 123 103 156 207 234 248 234 222 286 139 200 82 102 92 82 65 57 38 19 358 24 23 13 2 6 354 0
307 303 302 272 262 232 224 223 188 183 194 209 163 178 221 182 238 208 224 190 213 303 182 161 120 135 132 110 170 197 221 327 256 228 213 232 224 286 105 92 80 67 55 55 35 19 35 19 25 21 17 6 8 7
318 318 289 243 261 247 226 210 187 191 189 202 199 217 222 243 265 293 296 185 176 165 136 106 65 82 91 194 194 246 232 238 279 200 185 217 144 120 100 86 80 67 57 56 49 32 34 55 39 29 19 18 15 15
319 337 352 285 244 210 198 160 170 169 193 233 230 263 272 287 3 67 21 148 153 136 107 84 112 114 210 216 252 220 200 223 255 211 174 155 131 112 97 85 101 83 68 61 40 57 56 51 37 32 23 23 20 24
327 356 350 58 159 150 148 165 149 177 205 237 251 254 266 276 256 156 140 137 157 151 143 132 170 204 185 219 242 195 168 308 330 171 151 144 133 131 124 135 111 114 72 65 91 67 62 52 44 32 30 29 25 26
359 320 31 95 154 135 166 169 154 191 243 247 253 275 244 260 276 228 178 130 194 182 161 192 149 185 202 225 218 220 236 251 215 139 138 132 138 133 136 147 143 127 83 110 91 76 62 53 47 41 29 28 28 26
287 332 171 132 152 145 134 174 202 249 246 259 273 285 276 297 311 95 189 181 170 168 148 144 161 207 224 228 131 137 37 106 167 157 153 158 156 152 133 123 119 120 129 110 92 81 67 49 48 36 29 29 30 26
260 282 138 179 178 217 154 187 226 274 278 286 297 298 290 290 289 221 195 178 159 141 109 202 214 214 206 255 259 213 185 184 183 163 173 180 160 168 149 135 113 134 122 107 86 79 66 55 46 33 26 28 31 29
206 150 182 159 190 227 275 223 246 252 290 289 309 327 293 288 247 187 167 168 174 195 228 238 246 261 276 237 326 307 175 175 189 185 178 185 173 160 155 114 115 105 144 102 76 77 57 48 52 34 24 28 28 32
118 168 175 203 198 235 258 232 247 293 262 272 300 283 276 284 297 153 168 166 215 222 229 237 244 258 236 227 343 266 148 184 198 198 201 184 168 125 128 132 136 103 91 111 80 79 68 47 37 45 30 27 22 28
165 204 162 188 199 218 261 221 240 256 278 318 325 258 253 233 84 156 170 218 250 269 269 269 262 227 235 240 175 177 197 170 160 151 141 139 135 128 120 113 118 119 90 94 99 88 74 51 38 39 38 32 20 22
179 182 199 207 209 223 223 221 221 236 262 262 239 267 221 134 163 183 265 216 297 317 294 238 260 163 160 180 156 176 171 150 146 145 145 142 137 128 126 129 111 111 103 87 91 80 69 51 43 43 49 30 24 19
171 211 197 225 203 237 201 201 206 201 242 209 247 247 149 134 159 201 229 335 326 308 150 158 154 119 131 144 154 158 143 152 153 142 149 154 145 144 139 128 122 119 122 173 88 82 80 64 53 48 36 32 23 23
220 205 198 210 223 219 204 220 188 212 217 221 242 129 139 155 180 197 153 344 341 95 154 142 118 142 142 92 133 150 140 144 141 132 150 174 168 167 160 141 103 79 41 26 10 74 79 75 70 55 45 46 34 26
240 252 217 224 242 273 283 131 177 204 231 228 176 178 172 192 150 151 119 36 46 84 139 153 121 134 144 131 135 140 143 150 146 122 116 139 166 153 126 102 81 76 63 51 44 42 9 12 40 42 41 56 52 37
251 281 216 210 230 241 237 239 214 257 11 342 147 83 126 25 111 171 132 53 63 136 150 143 136 123 126 128 136 141 135 131 123 117 110 109 105 95 85 78 73 68 58 53 56 71 72 62 56 44 52 23 24 47
243 253 304 211 214 77 45 4 45 78 355 333 11 83 96 87 116 145 91 77 120 111 94 174 149 134 129 130 128 125 128 138 147 134 124 119 116 106 104 101 90 58 93 138 28 13 3 4 141 77 87 62 346 356
244 237 259 1 102 82 46 22 130 331 329 93 100 105 102 110 95 102 100 117 127 110 98 121 135 149 152 155 142 139 146 160 185 165 152 146 138 143 171 192 245 276 275 283 317 327 320 324 144 222 279 312 325 323
186 153 92 63 85 130 151 104 95 119 135 98 132 142 131 126 98 89 82 122 158 166 179 178 163 166 170 156 165 165 126 129 140 150 153 151 153 178 171 222 260 276 291 305 319 331 333 328 320 310 308 315 325 336
158 152 149 140 140 159 142 148 105 88 72 73 101 131 115 98 77 100 88 104 136 150 153 164 166 154 160 161 155 141 132 140 152 154 159 172 189 187 241 289 304 301 305 323 341 350 352 352 352 352 351 349 347 349
126 151 137 127 144 187 195 193 159 119 99 102 106 112 95 97 120 125 91 109 116 130 136 133 135 133 140 150 152 147 152 155 160 169 176 186 217 242 277 299 298 306 316 328 344 2 20 28 27 24 18 12 6 1